Siloam Springs, AR

3:10 PM CST on February 23, 2018 (GMT -0600)
Smith

Weather History for KSLG - February, 2013

Change the Weather History Date:

Friday, February 1, 2013

  Actual Average Record
Temperature  
Mean Temperature 29 °F -  
Max Temperature 44 °F 45 °F 71 °F (1997)
Min Temperature 14 °F 28 °F 12 °F (2011)
Degree Days  
Heating Degree Days 36    
Moisture  
Dew Point 8 °F    
Average Humidity 46    
Maximum Humidity 68    
Minimum Humidity 28    
Precipitation  
Precipitation 0.00 in - - ()
Sea Level Pressure  
Sea Level Pressure 30.33 in    
Wind  
Wind Speed 7 mph (SE)    
Max Wind Speed 14 mph    
Max Gust Speed 20 mph    
Visibility 10 miles    
Events      
Averages and records for this station are not official NWS values.
T = Trace of Precipitation, MM = Missing Value Source: NWS Daily Summary

Daily Weather History Graph

Daily Weather History Graph

Search for Another Location

Airport or City:

Trip Planner

Search our weather history database for the weather conditions in past years. The results will help you decide how hot, cold, wet, or windy it might be!

Date:

Astronomy

Feb. 01, 2013 Rise Set
Actual Time 7:18 AM CST 5:44 PM CST
Civil Twilight 6:51 AM CST 6:11 PM CST
Nautical Twilight 6:21 AM CST 6:42 PM CST
Astronomical Twilight 5:50 AM CST 7:12 PM CST
Moon 11:39 PM CST (2/1) 10:04 AM CST (2/1)
Length of Visible Light 11h 20m
Length of Day
10h 26m
Waning Gibbous, 70% of the Moon is Illuminated
Feb 1
Waning Gibbous
Feb 3
Last Quarter
Feb 10
New
Feb 17
First Quarter
Feb 25
Full

Hourly Weather History & Observations

Time (CST) Temp. Windchill Dew Point Humidity Pressure Visibility Wind Dir Wind Speed Gust Speed Precip Events Conditions
12:15 AM 17.6 °F 6.4 °F 6.8 °F 63% 30.43 in 10.0 mi North 9.2 mph - N/A   Clear
1:35 AM 17.6 °F 4.3 °F 3.2 °F 53% 30.41 in 10.0 mi NNE 12.7 mph - N/A   Clear
1:55 AM 17.6 °F 5.7 °F 3.2 °F 53% 30.40 in 10.0 mi NNE 10.4 mph - N/A   Clear
2:15 AM 17.6 °F 6.4 °F 3.2 °F 53% 30.41 in 10.0 mi NNE 9.2 mph - N/A   Clear
2:35 AM 15.8 °F 7.2 °F 3.2 °F 58% 30.41 in 10.0 mi NNE 5.8 mph - N/A   Clear
3:15 AM 15.8 °F 7.2 °F 3.2 °F 58% 30.41 in 10.0 mi NE 5.8 mph - N/A   Clear
3:35 AM 15.8 °F 6.1 °F 5.0 °F 62% 30.42 in 10.0 mi NNE 6.9 mph - N/A   Clear
3:55 AM 15.8 °F 8.6 °F 3.2 °F 58% 30.43 in 10.0 mi North 4.6 mph - N/A   Clear
4:15 AM 15.8 °F 10.2 °F 3.2 °F 58% 30.42 in 10.0 mi NNE 3.5 mph - N/A   Clear
4:36 AM 15.8 °F - 5.0 °F 62% 30.42 in 10.0 mi Calm Calm - N/A   Clear
4:55 AM 15.8 °F - 5.0 °F 62% 30.43 in 10.0 mi Calm Calm - N/A   Clear
5:15 AM 15.8 °F - 5.0 °F 62% 30.44 in 10.0 mi Calm Calm - N/A   Clear
5:35 AM 14.0 °F - 5.0 °F 67% 30.43 in 10.0 mi Calm Calm - N/A   Clear
5:55 AM 14.0 °F - 3.2 °F 62% 30.43 in 10.0 mi Calm Calm - N/A   Clear
6:15 AM 14.0 °F - 5.0 °F 67% 30.43 in 10.0 mi Calm Calm - N/A   Clear
6:35 AM 14.0 °F 8.2 °F 5.0 °F 67% 30.43 in 10.0 mi ENE 3.5 mph - N/A   Clear
6:56 AM 14.0 °F 6.5 °F 3.2 °F 62% 30.43 in 10.0 mi East 4.6 mph - N/A   Clear
7:15 AM 14.0 °F 5.1 °F 5.0 °F 67% 30.43 in 10.0 mi ENE 5.8 mph - N/A   Clear
7:56 AM 15.8 °F 6.1 °F 6.8 °F 68% 30.43 in 10.0 mi East 6.9 mph - N/A   Clear
8:35 AM 17.6 °F 8.2 °F 6.8 °F 63% 30.44 in 10.0 mi ESE 6.9 mph - N/A   Clear
8:56 AM 19.4 °F 10.4 °F 6.8 °F 58% 30.44 in 10.0 mi ESE 6.9 mph - N/A   Clear
9:15 AM 21.2 °F 13.6 °F 5.0 °F 50% 30.44 in 10.0 mi SE 5.8 mph - N/A   Clear
9:35 AM 21.2 °F 11.7 °F 5.0 °F 50% 30.45 in 10.0 mi East 8.1 mph - N/A   Clear
10:15 AM 24.8 °F 16.9 °F 3.2 °F 40% 30.44 in 10.0 mi ESE 6.9 mph - N/A   Clear
10:35 AM 26.6 °F 19.1 °F 5.0 °F 40% 30.44 in 10.0 mi East 6.9 mph - N/A   Clear
10:55 AM 28.4 °F 23.3 °F 6.8 °F 40% 30.44 in 10.0 mi SE 4.6 mph - N/A   Clear
11:16 AM 30.2 °F 25.4 °F 6.8 °F 37% 30.42 in 10.0 mi SE 4.6 mph - N/A   Clear
11:35 AM 32.0 °F 26.4 °F 6.8 °F 35% 30.41 in 10.0 mi ESE 5.8 mph - N/A   Clear
12:16 PM 35.6 °F 28.6 °F 5.0 °F 28% 30.39 in 10.0 mi South 9.2 mph - N/A   Clear
12:35 PM 35.6 °F 31.7 °F 6.8 °F 30% 30.38 in 10.0 mi ESE 4.6 mph - N/A   Clear
12:56 PM 37.4 °F 32.1 °F 8.6 °F 30% 30.36 in 10.0 mi South 6.9 mph - N/A   Clear
1:15 PM 39.2 °F 34.2 °F 8.6 °F 28% 30.34 in 10.0 mi SE 6.9 mph - N/A   Clear
1:55 PM 42.8 °F 36.6 °F 12.2 °F 29% 30.31 in 10.0 mi SSE 11.5 mph 18.4 mph N/A   Clear
2:15 PM 42.8 °F 38.0 °F 12.2 °F 29% 30.29 in 10.0 mi SE 8.1 mph - N/A   Clear
2:35 PM 42.8 °F 37.0 °F 14.0 °F 31% 30.29 in 10.0 mi South 10.4 mph - N/A   Clear
2:55 PM 44.6 °F 39.7 °F 15.8 °F 31% 30.26 in 10.0 mi SSE 9.2 mph - N/A   Clear
3:16 PM 44.6 °F 38.8 °F 14.0 °F 29% 30.25 in 10.0 mi SE 11.5 mph - N/A   Clear
3:35 PM 44.6 °F 38.4 °F 15.8 °F 31% 30.26 in 10.0 mi SSE 12.7 mph 17.3 mph N/A   Clear
4:35 PM 42.8 °F 37.0 °F 14.0 °F 31% 30.23 in 10.0 mi SSE 10.4 mph - N/A   Clear
4:55 PM 42.8 °F 37.0 °F 14.0 °F 31% 30.22 in 10.0 mi South 10.4 mph - N/A   Clear
5:15 PM 41.0 °F 35.2 °F 12.2 °F 31% 30.23 in 10.0 mi South 9.2 mph - N/A   Clear
5:35 PM 37.4 °F 29.8 °F 12.2 °F 36% 30.22 in 10.0 mi South 11.5 mph - N/A   Clear
5:36 PM 37.4 °F 29.8 °F 12.2 °F 36% 30.22 in 10.0 mi South 11.5 mph - N/A   Clear
5:55 PM 37.4 °F 30.3 °F 12.2 °F 36% 30.21 in 10.0 mi SSE 10.4 mph - N/A   Clear
6:15 PM 37.4 °F 29.8 °F 10.4 °F 33% 30.20 in 10.0 mi SSE 11.5 mph - N/A   Clear
6:55 PM 35.6 °F 26.6 °F 10.4 °F 35% 30.18 in 10.0 mi SE 13.8 mph 18.4 mph N/A   Clear
7:15 PM 35.6 °F 26.6 °F 10.4 °F 35% 30.16 in 10.0 mi SE 13.8 mph 19.6 mph N/A   Clear
7:35 PM 35.6 °F 29.2 °F 10.4 °F 35% 30.17 in 10.0 mi SSE 8.1 mph - N/A   Clear
7:55 PM 33.8 °F 27.7 °F 12.2 °F 41% 30.18 in 10.0 mi SSE 6.9 mph - N/A   Clear
8:15 PM 33.8 °F - 12.2 °F 41% 30.18 in 10.0 mi Calm Calm - N/A   Clear
9:15 PM 30.2 °F - 12.2 °F 47% 30.21 in 10.0 mi Calm Calm - N/A   Clear
9:35 PM 32.0 °F 25.6 °F 12.2 °F 44% 30.21 in 10.0 mi SSW 6.9 mph - N/A   Clear
9:55 PM 32.0 °F 28.7 °F 12.2 °F 44% 30.23 in 10.0 mi West 3.5 mph - N/A   Clear
10:15 PM 32.0 °F 27.5 °F 12.2 °F 44% 30.23 in 10.0 mi SSW 4.6 mph - N/A   Clear
10:35 PM 30.2 °F 23.4 °F 12.2 °F 47% 30.23 in 10.0 mi South 6.9 mph - N/A   Clear
10:56 PM 30.2 °F - 14.0 °F 51% 30.23 in 10.0 mi Calm Calm - N/A   Clear
11:15 PM 30.2 °F 26.7 °F 14.0 °F 51% 30.23 in 10.0 mi SSW 3.5 mph - N/A   Clear